Location: Perryvale
(54.4667°N, 113.3833°W)
Time: 00:36:41
(UTC+00:00)

Vanguard 1 - Pass Details

Date: 22 May 2024
Orbit: 652 x 3825 km, 34.2° (Epoch: 13 June)

Event Time Altitude Azimuth Distance (km) Brightness Sun altitude
Rises 03:23:17 0° 206° (SSW) 4,518 13.4 1.5°
Reaches altitude 10° 03:26:44 10° 191° (S) 3,959 12.9 1.1°
Maximum altitude 03:34:36 22° 145° (SE) 3,922 12.6 0.2°
Drops below altitude 10° 03:45:56 10° 103° (ESE) 5,937 13.5 -1.1°
Sets 03:52:55 0° 92° (E) 7,444 14.1 -1.9°
